Home > Weather > Thane > Past weeks

Flag for India Weather for the Past 2 Weeks in Thane, Maharashtra, India

Now
73 °F

Haze.


Feels Like: 73 °F
Forecast: 66 / 83 °F
Wind: 5 mph from North

Location: Mumbai / Santacruz

Current Time: Feb 11, 2016 at 6:31:27 AM

Latest Report: Feb 11, 2016 at 5:30 AM


Visibility: 2 mi

Pressure: 29.86 "Hg

Humidity: 83%

Dew point: 68 °F

Location of ThaneLocation

Historic Weather in Thane — Graph

°F

Thane Temperature Yesterday

Maximum temperature yesterday: 86 °F (at 3:00 PM)
Minimum temperature yesterday: 73 °F (at 4:00 AM)
Average temperature yesterday: 80 °F

High & Low Weather Summary for the Past Weeks

 TemperatureHumidityPressure
High91 °F (Jan 28, 4:00 PM)88% (Feb 6, 4:30 AM)30.04 "Hg (Feb 6, 4:30 AM)
Low66 °F (Jan 28, 5:30 AM)24% (Jan 28, 12:30 PM)29.80 "Hg (Feb 6, 4:30 AM)
Average79 °F57%29.93 "Hg
* Reported Jan 27 4:30 AM — Feb 11 4:30 AM, Thane, Weather by CustomWeather, © 2016

Note: Actual official high and low records may vary slightly from our data, if they occured in-between our weather recording intervals... More about our weather records

Advertising

Thane Weather History for the Previous 24 Hours

 ConditionsComfort  
Time TempWeatherWind HumidityBarometerVisibility
4:30 AM
Thu, Feb 11
73 °FHaze.5 mph83%29.86 "Hg2 mi
3:30 AM75 °FHaze.5 mph83%29.86 "Hg2 mi
2:30 AM75 °FHaze.6 mph83%29.86 "Hg2 mi
2:00 AM75 °FHaze.7 mph83%29.86 "Hg2 mi
1:30 AM75 °FHaze.6 mph83%29.86 "Hg2 mi
1:00 AM75 °FHaze.5 mph83%29.86 "Hg2 mi
12:30 AM77 °FHaze.6 mph79%29.89 "Hg2 mi
12:00 AM77 °FHaze.6 mph79%29.89 "Hg2 mi
11:30 PM
Wed, Feb 10
77 °FHaze.6 mph79%29.89 "Hg2 mi
11:00 PM77 °FHaze.6 mph79%29.89 "Hg3 mi
10:30 PM79 °FHaze.6 mph70%29.89 "Hg3 mi
10:00 PM79 °FHaze.7 mph70%29.89 "Hg3 mi
9:30 PM79 °FHaze.6 mph70%29.89 "Hg3 mi
9:00 PM79 °FHaze.6 mph65%29.89 "Hg3 mi
8:30 PM79 °FHaze.7 mph65%29.89 "Hg2 mi
8:00 PM81 °FPassing clouds.9 mph54%29.86 "Hg2 mi
7:30 PM81 °FPassing clouds.7 mph54%29.86 "Hg2 mi
7:00 PM81 °FPassing clouds.8 mph54%29.86 "Hg3 mi
6:30 PM82 °FPassing clouds.9 mph42%29.86 "Hg4 mi
6:00 PM84 °FPassing clouds.9 mph33%29.83 "Hg4 mi
5:30 PM84 °FPassing clouds.10 mph31%29.83 "Hg4 mi
5:00 PM86 °FScattered clouds.7 mph27%29.83 "Hg3 mi
4:30 PM84 °FScattered clouds.6 mph31%29.83 "Hg3 mi
4:00 PM86 °FScattered clouds.8 mph27%29.83 "Hg3 mi
3:30 PM86 °FScattered clouds.9 mph27%29.86 "Hg3 mi
3:00 PM86 °FScattered clouds.10 mph25%29.86 "Hg2 mi
2:30 PM84 °FScattered clouds.10 mph25%29.86 "Hg2 mi
2:00 PM84 °FScattered clouds.8 mph33%29.89 "Hg2 mi
1:30 PM84 °FPassing clouds.9 mph43%29.89 "Hg2 mi
1:00 PM84 °FPassing clouds.10 mph45%29.92 "Hg2 mi
12:30 PM84 °FPassing clouds.12 mph43%29.92 "Hg2 mi
12:00 PM84 °FPassing clouds.7 mph40%29.95 "Hg2 mi
11:30 AM84 °FPassing clouds.5 mph37%29.95 "Hg2 mi
11:00 AM82 °FPassing clouds.7 mph35%29.98 "Hg2 mi
10:30 AM82 °FPassing clouds.5 mph45%29.98 "Hg1 mi
10:00 AM81 °FHaze.No wind51%29.98 "Hg1 mi
9:30 AM79 °FHaze.No wind65%29.95 "Hg1 mi
8:30 AM75 °FFog.3 mph83%29.92 "Hg1 mi
8:00 AM75 °FFog.3 mph83%29.92 "Hg1 mi
7:30 AM75 °FFog.5 mph83%29.89 "Hg1 mi
7:00 AM75 °FFog.2 mph83%29.89 "Hg1 mi
6:00 AM75 °FFog.5 mph78%29.86 "Hg1 mi
Weather by CustomWeather, © 2016

See weather overviewHow to use our weather pages